Powrót do katalogu

FENGYUN 1C DEB

AktywnyPO
NORAD 46987·DEBRIS·🇨🇳 China

Wystrzelony May 10, 1999 z Taiyuan Satellite Launch Center

Loading…

Następne Przeloty (najbliższe 24 godziny)

TLE

ŚwieżeSource: Space-Track

Epoka: Sep 13, 2026, 14:43 UTC

1 46987U 99025EZM 26256.61348407  .00005848  00000-0  15529-2 0  9992
2 46987  98.9194  46.3056 0030377 239.0938 120.7266 14.48767494613169

Śledź FENGYUN 1C DEB w czasie rzeczywistym z AllMySat

Download on the App Store